Location: Ecklingerode
(51.5036°N, 10.3122°E)
Time: 01:05:24
(UTC+00:00)

COSMOS 2455 - Pass Details

Date: 29 October 2020
Orbit: 899 x 911 km, 67.1° (Epoch: 23 November)

Event Time Altitude Azimuth Distance (km) Brightness Sun altitude
Rises 18:10:52 0° 314° (NW) 3,552 6.7 -21.4°
Reaches altitude 10° 18:13:58 10° 329° (NNW) 2,609 5.7 -21.8°
Maximum altitude 18:18:41 23° 21° (NNE) 1,852 4.3 -22.6°
Enters shadow 18:19:42 22° 35° (NE) 1,894 4.2 -22.7°
